Location: Unspecified
(0.0000°N, 0.0000°E)
Time: 06:32:34
(UTC+02:00)

ISS - All Passes

Search period start: 25 August 2016 00:00
Search period end: 04 September 2016 00:00
Orbit: 402 x 406 km, 51.6° (Epoch: 25 August)

Date Brightness Start Highest point End Pass type
(mag) Time Alt. Az. Time Alt. Az. Time Alt. Az.
25 Aug - 09:07:09 10° WSW 09:09:55 25° NW 09:12:41 10° N daylight
25 Aug - 20:40:36 10° NW 20:43:43 42° SW 20:46:50 10° SSE visible
26 Aug - 08:14:19 10° SW 08:17:35 77° NW 08:20:50 10° NNE daylight
26 Aug - 19:48:10 10° NNW 19:51:23 58° NE 19:54:35 10° SE daylight
27 Aug - 07:22:15 10° SSW 07:25:14 33° SE 07:28:13 10° ENE visible
27 Aug - 18:56:32 10° N 18:59:01 20° NE 19:01:31 10° ESE daylight
27 Aug - 20:34:03 10° WSW 20:35:17 12° SW 20:36:31 10° SSW visible
28 Aug - 06:31:17 10° SSE 06:32:51 13° SE 06:34:25 10° E visible
28 Aug - 08:06:46 10° W 08:09:07 18° NW 08:11:29 10° N daylight
28 Aug - 19:40:00 10° WNW 19:42:54 30° SW 19:45:48 10° S daylight
29 Aug - 07:13:33 10° SW 07:16:44 51° NW 07:19:55 10° NNE visible
29 Aug - 18:47:16 10° NW 18:50:31 87° NE 18:53:47 10° SE daylight
30 Aug - 06:21:12 10° SSW 06:24:22 47° SE 06:27:31 10° NE visible
30 Aug - 17:55:17 10° N 17:58:08 28° NE 18:00:59 10° ESE daylight
31 Aug - 05:29:41 10° S 05:31:57 17° SE 05:34:13 10° E visible
31 Aug - 07:06:29 10° W 07:08:13 14° NW 07:09:56 10° NNW visible
31 Aug - 17:04:48 10° NE 17:05:43 11° NE 17:06:38 10° ENE daylight
31 Aug - 18:39:23 10° WNW 18:41:58 22° SW 18:44:34 10° S daylight
01 Sep - 06:12:46 10° WSW 06:15:47 35° NW 06:18:48 10° NNE visible
01 Sep - 17:46:20 10° NW 17:49:32 63° SW 17:52:46 10° SSE daylight
02 Sep - 05:20:07 10° SSW 05:23:22 71° SE 05:26:37 10° NE night (unlit)
02 Sep - 16:54:03 10° NNW 16:57:07 39° NE 17:00:12 10° SE daylight
03 Sep - 04:28:14 10° S 04:30:56 23° SE 04:33:36 10° ENE night (unlit)
03 Sep - 16:02:44 10° NNE 16:04:40 15° NE 16:06:36 10° E daylight
03 Sep - 17:38:49 10° W 17:40:55 16° SW 17:43:02 10° SSW daylight
